Year,Month,Day,Hour,Minute,Value (Times are PST for temperature in C)
2021,05,06,00,00,13.80
2021,05,06,00,01,13.80
2021,05,06,00,02,13.80
2021,05,06,00,03,13.80
2021,05,06,00,04,13.70
2021,05,06,00,05,13.70
2021,05,06,00,06,13.70
2021,05,06,00,07,13.70
2021,05,06,00,08,13.70
2021,05,06,00,09,13.70
2021,05,06,00,10,13.70
2021,05,06,00,11,13.60
2021,05,06,00,12,13.60
2021,05,06,00,13,13.60
2021,05,06,00,14,13.60
2021,05,06,00,15,13.50
2021,05,06,00,16,13.50
2021,05,06,00,17,13.50
2021,05,06,00,18,13.50
2021,05,06,00,19,13.40
2021,05,06,00,20,13.40
2021,05,06,00,21,13.40
2021,05,06,00,22,13.40
2021,05,06,00,23,13.40
2021,05,06,00,24,13.40
2021,05,06,00,25,13.40
2021,05,06,00,26,13.30
2021,05,06,00,27,13.30
2021,05,06,00,28,13.30
2021,05,06,00,29,13.30
2021,05,06,00,30,13.20
2021,05,06,00,31,13.20
2021,05,06,00,32,13.20
2021,05,06,00,33,13.20
2021,05,06,00,34,13.20
2021,05,06,00,35,13.20
2021,05,06,00,36,13.20
2021,05,06,00,37,13.20
2021,05,06,00,38,13.10
2021,05,06,00,39,13.20
2021,05,06,00,40,13.20
2021,05,06,00,41,13.20
2021,05,06,00,42,13.20
2021,05,06,00,43,13.10
2021,05,06,00,44,13.10
2021,05,06,00,45,13.10
2021,05,06,00,46,13.10
2021,05,06,00,47,13.10
2021,05,06,00,48,13.10
2021,05,06,00,49,13.10
2021,05,06,00,50,13.10
2021,05,06,00,51,13.10
2021,05,06,00,52,13.10
2021,05,06,00,53,13.10
2021,05,06,00,54,13.10
2021,05,06,00,55,13.10
2021,05,06,00,56,13.10
2021,05,06,00,57,13.10
2021,05,06,00,58,13.10
2021,05,06,00,59,13.10
2021,05,06,01,00,13.10
2021,05,06,01,01,13.10
2021,05,06,01,02,13.20
2021,05,06,01,03,13.20
2021,05,06,01,04,13.20
2021,05,06,01,05,13.30
2021,05,06,01,06,13.30
2021,05,06,01,07,13.30
2021,05,06,01,08,13.30
2021,05,06,01,09,13.30
2021,05,06,01,10,13.30
2021,05,06,01,11,13.30
2021,05,06,01,12,13.30
2021,05,06,01,13,13.30
2021,05,06,01,14,13.30
2021,05,06,01,15,13.30
2021,05,06,01,16,13.30
2021,05,06,01,17,13.30
2021,05,06,01,18,13.30
2021,05,06,01,19,13.30
2021,05,06,01,20,13.30
2021,05,06,01,21,13.30
2021,05,06,01,22,13.20
2021,05,06,01,23,13.20
2021,05,06,01,24,13.10
2021,05,06,01,25,13.10
2021,05,06,01,26,13.00
2021,05,06,01,27,13.00
2021,05,06,01,28,12.90
2021,05,06,01,29,12.90
2021,05,06,01,30,12.80
2021,05,06,01,31,12.80
2021,05,06,01,32,12.80
2021,05,06,01,33,12.70
2021,05,06,01,34,12.70
2021,05,06,01,35,12.60
2021,05,06,01,36,12.60
2021,05,06,01,37,12.50
2021,05,06,01,38,12.50
2021,05,06,01,39,12.40
2021,05,06,01,40,12.40
2021,05,06,01,41,12.40
2021,05,06,01,42,12.40
2021,05,06,01,43,12.30
2021,05,06,01,44,12.30
2021,05,06,01,45,12.30
2021,05,06,01,46,12.30
2021,05,06,01,47,12.30
2021,05,06,01,48,12.30
2021,05,06,01,49,12.20
2021,05,06,01,50,12.20
2021,05,06,01,51,12.20
2021,05,06,01,52,12.20
2021,05,06,01,53,12.10
2021,05,06,01,54,12.10
2021,05,06,01,55,12.10
2021,05,06,01,56,12.00
2021,05,06,01,57,12.00
2021,05,06,01,58,12.00
2021,05,06,01,59,11.90
2021,05,06,02,00,11.90
2021,05,06,02,01,11.80
2021,05,06,02,02,11.80
2021,05,06,02,03,11.80
2021,05,06,02,04,11.70
2021,05,06,02,05,11.70
2021,05,06,02,06,11.70
2021,05,06,02,07,11.60
2021,05,06,02,08,11.60
2021,05,06,02,09,11.60
2021,05,06,02,10,11.50
2021,05,06,02,11,11.50
2021,05,06,02,12,11.40
2021,05,06,02,13,11.40
2021,05,06,02,14,11.40
2021,05,06,02,15,11.30
2021,05,06,02,16,11.30
2021,05,06,02,17,11.30
2021,05,06,02,18,11.30
2021,05,06,02,19,11.20
2021,05,06,02,20,11.20
2021,05,06,02,21,11.20
2021,05,06,02,22,11.20
2021,05,06,02,23,11.20
2021,05,06,02,24,11.10
2021,05,06,02,25,11.10
2021,05,06,02,26,11.10
2021,05,06,02,27,11.10
2021,05,06,02,28,11.10
2021,05,06,02,29,11.10
2021,05,06,02,30,11.00
2021,05,06,02,31,11.00
2021,05,06,02,32,11.00
2021,05,06,02,33,11.00
2021,05,06,02,34,11.00
2021,05,06,02,35,11.00
2021,05,06,02,36,11.00
2021,05,06,02,37,11.00
2021,05,06,02,38,11.00
2021,05,06,02,39,11.00
2021,05,06,02,40,10.90
2021,05,06,02,41,10.90
2021,05,06,02,42,10.90
2021,05,06,02,43,10.90
2021,05,06,02,44,10.90
2021,05,06,02,45,10.90
2021,05,06,02,46,10.90
2021,05,06,02,47,10.90
2021,05,06,02,48,10.90
2021,05,06,02,49,10.90
2021,05,06,02,50,10.90
2021,05,06,02,51,10.90
2021,05,06,02,52,10.90
2021,05,06,02,53,10.90
2021,05,06,02,54,10.90
2021,05,06,02,55,10.90
2021,05,06,02,56,10.80
2021,05,06,02,57,10.80
2021,05,06,02,58,10.80
2021,05,06,02,59,10.80
2021,05,06,03,00,10.70
2021,05,06,03,01,10.70
2021,05,06,03,02,10.70
2021,05,06,03,03,10.70
2021,05,06,03,04,10.70
2021,05,06,03,05,10.70
2021,05,06,03,06,10.70
2021,05,06,03,07,10.70
2021,05,06,03,08,10.70
2021,05,06,03,09,10.70
2021,05,06,03,10,10.70
2021,05,06,03,11,10.70
2021,05,06,03,12,10.70
2021,05,06,03,13,10.70
2021,05,06,03,14,10.70
2021,05,06,03,15,10.70
2021,05,06,03,16,10.70
2021,05,06,03,17,10.70
2021,05,06,03,18,10.70
2021,05,06,03,19,10.70
2021,05,06,03,20,10.70
2021,05,06,03,21,10.70
2021,05,06,03,22,10.70
2021,05,06,03,23,10.60
2021,05,06,03,24,10.60
2021,05,06,03,25,10.60
2021,05,06,03,26,10.60
2021,05,06,03,27,10.60
2021,05,06,03,28,10.50
2021,05,06,03,29,10.50
2021,05,06,03,30,10.50
2021,05,06,03,31,10.50
2021,05,06,03,32,10.50
2021,05,06,03,33,10.40
2021,05,06,03,34,10.40
2021,05,06,03,35,10.40
2021,05,06,03,36,10.40
2021,05,06,03,37,10.40
2021,05,06,03,38,10.40
2021,05,06,03,39,10.30
2021,05,06,03,40,10.30
2021,05,06,03,41,10.30
2021,05,06,03,42,10.30
2021,05,06,03,43,10.30
2021,05,06,03,44,10.30
2021,05,06,03,45,10.30
2021,05,06,03,46,10.30
2021,05,06,03,47,10.20
2021,05,06,03,48,10.20
2021,05,06,03,49,10.20
2021,05,06,03,50,10.20
2021,05,06,03,51,10.20
2021,05,06,03,52,10.20
2021,05,06,03,53,10.20
2021,05,06,03,54,10.20
2021,05,06,03,55,10.20
2021,05,06,03,56,10.20
2021,05,06,03,57,10.20
2021,05,06,03,58,10.20
2021,05,06,03,59,10.20
2021,05,06,04,00,10.20
2021,05,06,04,01,10.20
2021,05,06,04,02,10.20
2021,05,06,04,03,10.20
2021,05,06,04,04,10.20
2021,05,06,04,05,10.20
2021,05,06,04,06,10.20
2021,05,06,04,07,10.20
2021,05,06,04,08,10.20
2021,05,06,04,09,10.20
2021,05,06,04,10,10.30
2021,05,06,04,11,10.30
2021,05,06,04,12,10.40
2021,05,06,04,13,10.40
2021,05,06,04,14,10.50
2021,05,06,04,15,10.60
2021,05,06,04,16,10.60
2021,05,06,04,17,10.70
2021,05,06,04,18,10.80
2021,05,06,04,19,10.80
2021,05,06,04,20,10.80
2021,05,06,04,21,10.90
2021,05,06,04,22,10.90
2021,05,06,04,23,10.90
2021,05,06,04,24,10.90
2021,05,06,04,25,10.90
2021,05,06,04,26,10.90
2021,05,06,04,27,10.90
2021,05,06,04,28,10.90
2021,05,06,04,29,10.90
2021,05,06,04,30,10.90
2021,05,06,04,31,10.90
2021,05,06,04,32,10.90
2021,05,06,04,33,10.90
2021,05,06,04,34,10.90
2021,05,06,04,35,10.90
2021,05,06,04,36,10.80
2021,05,06,04,37,10.80
2021,05,06,04,38,10.80
2021,05,06,04,39,10.80
2021,05,06,04,40,10.80
2021,05,06,04,41,10.80
2021,05,06,04,42,10.80
2021,05,06,04,43,10.80
2021,05,06,04,44,10.80
2021,05,06,04,45,10.80
2021,05,06,04,46,10.70
2021,05,06,04,47,10.70
2021,05,06,04,48,10.70
2021,05,06,04,49,10.70
2021,05,06,04,50,10.70
2021,05,06,04,51,10.60
2021,05,06,04,52,10.60
2021,05,06,04,53,10.60
2021,05,06,04,54,10.60
2021,05,06,04,55,10.60
2021,05,06,04,56,10.50
2021,05,06,04,57,10.50
2021,05,06,04,58,10.50
2021,05,06,04,59,10.40
2021,05,06,05,00,10.40
2021,05,06,05,01,10.40
2021,05,06,05,02,10.40
2021,05,06,05,03,10.40
2021,05,06,05,04,10.30
2021,05,06,05,05,10.30
2021,05,06,05,06,10.30
2021,05,06,05,07,10.30
2021,05,06,05,08,10.20
2021,05,06,05,09,10.20
2021,05,06,05,10,10.20
2021,05,06,05,11,10.10
2021,05,06,05,12,10.10
2021,05,06,05,13,10.10
2021,05,06,05,14,10.10
2021,05,06,05,15,10.10
2021,05,06,05,16,10.00
2021,05,06,05,17,10.10
2021,05,06,05,18,10.10
2021,05,06,05,19,10.10
2021,05,06,05,20,10.00
2021,05,06,05,21,10.00
2021,05,06,05,22,9.90
2021,05,06,05,23,9.90
2021,05,06,05,24,9.90
2021,05,06,05,25,9.80
2021,05,06,05,26,9.80
2021,05,06,05,27,9.80
2021,05,06,05,28,9.80
2021,05,06,05,29,9.80
2021,05,06,05,30,9.70
2021,05,06,05,31,9.70
2021,05,06,05,32,9.70
2021,05,06,05,33,9.70
2021,05,06,05,34,9.70
2021,05,06,05,35,9.70
2021,05,06,05,36,9.70
2021,05,06,05,37,9.70
2021,05,06,05,38,9.70
2021,05,06,05,39,9.70
2021,05,06,05,40,9.60
2021,05,06,05,41,9.60
2021,05,06,05,42,9.60
2021,05,06,05,43,9.60
2021,05,06,05,44,9.60
2021,05,06,05,45,9.60
2021,05,06,05,46,9.60
2021,05,06,05,47,9.60
2021,05,06,05,48,9.60
2021,05,06,05,49,9.60
2021,05,06,05,50,9.60
2021,05,06,05,51,9.60
2021,05,06,05,52,9.60
2021,05,06,05,53,9.60
2021,05,06,05,54,9.60
2021,05,06,05,55,9.60
2021,05,06,05,56,9.60
2021,05,06,05,57,9.60
2021,05,06,05,58,9.60
2021,05,06,05,59,9.60
2021,05,06,06,00,9.60
2021,05,06,06,01,9.60
2021,05,06,06,02,9.60
2021,05,06,06,03,9.50
2021,05,06,06,04,9.50
2021,05,06,06,05,9.50
2021,05,06,06,06,9.50
2021,05,06,06,07,9.50
2021,05,06,06,08,9.50
2021,05,06,06,09,9.40
2021,05,06,06,10,9.40
2021,05,06,06,11,9.40
2021,05,06,06,12,9.40
2021,05,06,06,13,9.40
2021,05,06,06,14,9.40
2021,05,06,06,15,9.40
2021,05,06,06,16,9.40
2021,05,06,06,17,9.40
2021,05,06,06,18,9.40
2021,05,06,06,19,9.40
2021,05,06,06,20,9.40
2021,05,06,06,21,9.30
2021,05,06,06,22,9.30
2021,05,06,06,23,9.40
2021,05,06,06,24,9.40
2021,05,06,06,25,9.40
2021,05,06,06,26,9.50
2021,05,06,06,27,9.60
2021,05,06,06,28,9.60
2021,05,06,06,29,9.60
2021,05,06,06,30,9.70
2021,05,06,06,31,9.70
2021,05,06,06,32,9.70
2021,05,06,06,33,9.80
2021,05,06,06,34,9.80
2021,05,06,06,35,9.80
2021,05,06,06,36,9.80
2021,05,06,06,37,9.80
2021,05,06,06,38,9.80
2021,05,06,06,39,9.80
2021,05,06,06,40,9.80
2021,05,06,06,41,9.80
2021,05,06,06,42,9.80
2021,05,06,06,43,9.80
2021,05,06,06,44,9.80
2021,05,06,06,45,9.80
2021,05,06,06,46,9.80
2021,05,06,06,47,9.80
2021,05,06,06,48,9.80
2021,05,06,06,49,9.80
2021,05,06,06,50,9.90
2021,05,06,06,51,9.90
2021,05,06,06,52,9.90
2021,05,06,06,53,9.90
2021,05,06,06,54,9.90
2021,05,06,06,55,10.00
2021,05,06,06,56,10.00
2021,05,06,06,57,10.00
2021,05,06,06,58,10.00
2021,05,06,06,59,10.10
2021,05,06,07,00,10.10
2021,05,06,07,01,10.10
2021,05,06,07,02,10.10
2021,05,06,07,03,10.10
2021,05,06,07,04,10.10
2021,05,06,07,05,10.10
2021,05,06,07,06,10.10
2021,05,06,07,07,10.10
2021,05,06,07,08,10.20
2021,05,06,07,09,10.20
2021,05,06,07,10,10.20
2021,05,06,07,11,10.20
2021,05,06,07,12,10.20
2021,05,06,07,13,10.20
2021,05,06,07,14,10.20
2021,05,06,07,15,10.20
2021,05,06,07,16,10.20
2021,05,06,07,17,10.20
2021,05,06,07,18,10.20
2021,05,06,07,19,10.20
2021,05,06,07,20,10.20
2021,05,06,07,21,10.20
2021,05,06,07,22,10.20
2021,05,06,07,23,10.20
2021,05,06,07,24,10.30
2021,05,06,07,25,10.30
2021,05,06,07,26,10.30
2021,05,06,07,27,10.30
2021,05,06,07,28,10.30
2021,05,06,07,29,10.30
2021,05,06,07,30,10.30
2021,05,06,07,31,10.40
2021,05,06,07,32,10.40
2021,05,06,07,33,10.40
2021,05,06,07,34,10.40
2021,05,06,07,35,10.40
2021,05,06,07,36,10.50
2021,05,06,07,37,10.50
2021,05,06,07,38,10.50
2021,05,06,07,39,10.60
2021,05,06,07,40,10.60
2021,05,06,07,41,10.70
2021,05,06,07,42,10.70
2021,05,06,07,43,10.70
2021,05,06,07,44,10.80
2021,05,06,07,45,10.80
2021,05,06,07,46,10.80
2021,05,06,07,47,10.80
2021,05,06,07,48,10.90
2021,05,06,07,49,10.90
2021,05,06,07,50,11.00
2021,05,06,07,51,11.00
2021,05,06,07,52,11.00
2021,05,06,07,53,11.10
2021,05,06,07,54,11.10
2021,05,06,07,55,11.20
2021,05,06,07,56,11.20
2021,05,06,07,57,11.20
2021,05,06,07,58,11.20
2021,05,06,07,59,11.30
2021,05,06,08,00,11.30
2021,05,06,08,01,11.30
2021,05,06,08,02,11.40
2021,05,06,08,03,11.40
2021,05,06,08,04,11.40
2021,05,06,08,05,11.40
2021,05,06,08,06,11.40
2021,05,06,08,07,11.50
2021,05,06,08,08,11.50
2021,05,06,08,09,11.50
2021,05,06,08,10,11.60
2021,05,06,08,11,11.60
2021,05,06,08,12,11.60
2021,05,06,08,13,11.60
2021,05,06,08,14,11.60
2021,05,06,08,15,11.70
2021,05,06,08,16,11.70
2021,05,06,08,17,11.70
2021,05,06,08,18,11.70
2021,05,06,08,19,11.70
2021,05,06,08,20,11.80
2021,05,06,08,21,11.80
2021,05,06,08,22,11.80
2021,05,06,08,23,11.80
2021,05,06,08,24,11.80
2021,05,06,08,25,11.80
2021,05,06,08,26,11.90
2021,05,06,08,27,11.90
2021,05,06,08,28,11.90
2021,05,06,08,29,11.90
2021,05,06,08,30,11.90
2021,05,06,08,31,12.00
2021,05,06,08,32,12.00
2021,05,06,08,33,12.10
2021,05,06,08,34,12.10
2021,05,06,08,35,12.10
2021,05,06,08,36,12.10
2021,05,06,08,37,12.10
2021,05,06,08,38,12.20
2021,05,06,08,39,12.20
2021,05,06,08,40,12.20
2021,05,06,08,41,12.20
2021,05,06,08,42,12.20
2021,05,06,08,43,12.20
2021,05,06,08,44,12.20
2021,05,06,08,45,12.20
2021,05,06,08,46,12.30
2021,05,06,08,47,12.30
2021,05,06,08,48,12.30
2021,05,06,08,49,12.30
2021,05,06,08,50,12.30
2021,05,06,08,51,12.30
2021,05,06,08,52,12.30
2021,05,06,08,53,12.30
2021,05,06,08,54,12.30
2021,05,06,08,55,12.40
2021,05,06,08,56,12.40
2021,05,06,08,57,12.40
2021,05,06,08,58,12.40
2021,05,06,08,59,12.40
2021,05,06,09,00,12.50
2021,05,06,09,01,12.50
2021,05,06,09,02,12.50
2021,05,06,09,03,12.40
2021,05,06,09,04,12.40
2021,05,06,09,05,12.40
2021,05,06,09,06,12.40
2021,05,06,09,07,12.30
2021,05,06,09,08,12.30
2021,05,06,09,09,12.30
2021,05,06,09,10,12.30
2021,05,06,09,11,12.30
2021,05,06,09,12,12.30
2021,05,06,09,13,12.30
2021,05,06,09,14,12.30
2021,05,06,09,15,12.30
2021,05,06,09,16,12.30
2021,05,06,09,17,12.30
2021,05,06,09,18,12.20
2021,05,06,09,19,12.20
2021,05,06,09,20,12.20
2021,05,06,09,21,12.20
2021,05,06,09,22,12.30
2021,05,06,09,23,12.20
2021,05,06,09,24,12.30
2021,05,06,09,25,12.20
2021,05,06,09,26,12.20
2021,05,06,09,27,12.20
2021,05,06,09,28,12.20
2021,05,06,09,29,12.20
2021,05,06,09,30,12.20
2021,05,06,09,31,12.20
2021,05,06,09,32,12.20
2021,05,06,09,33,12.20
2021,05,06,09,34,12.20
2021,05,06,09,35,12.20
2021,05,06,09,36,12.20
2021,05,06,09,37,12.30
2021,05,06,09,38,12.30
2021,05,06,09,39,12.30
2021,05,06,09,40,12.30
2021,05,06,09,41,12.30
2021,05,06,09,42,12.30
2021,05,06,09,43,12.40
2021,05,06,09,44,12.40
2021,05,06,09,45,12.40
2021,05,06,09,46,12.40
2021,05,06,09,47,12.40
2021,05,06,09,48,12.50
2021,05,06,09,49,12.50
2021,05,06,09,50,12.60
2021,05,06,09,51,12.60
2021,05,06,09,52,12.60
2021,05,06,09,53,12.70
2021,05,06,09,54,12.70
2021,05,06,09,55,12.80
2021,05,06,09,56,12.80
2021,05,06,09,57,12.90
2021,05,06,09,58,12.90
2021,05,06,09,59,13.00
2021,05,06,10,00,13.00
2021,05,06,10,01,13.00
2021,05,06,10,02,13.10
2021,05,06,10,03,13.10
2021,05,06,10,04,13.20
2021,05,06,10,05,13.20
2021,05,06,10,06,13.30
2021,05,06,10,07,13.30
2021,05,06,10,08,13.40
2021,05,06,10,09,13.40
2021,05,06,10,10,13.50
2021,05,06,10,11,13.50
2021,05,06,10,12,13.60
2021,05,06,10,13,13.60
2021,05,06,10,14,13.70
2021,05,06,10,15,13.70
2021,05,06,10,16,13.70
2021,05,06,10,17,13.60
2021,05,06,10,18,13.60
2021,05,06,10,19,13.60
2021,05,06,10,20,13.70
2021,05,06,10,21,13.70
2021,05,06,10,22,13.70
2021,05,06,10,23,13.70
2021,05,06,10,24,13.70
2021,05,06,10,25,13.70
2021,05,06,10,26,13.60
2021,05,06,10,27,13.60
2021,05,06,10,28,13.70
2021,05,06,10,29,13.60
2021,05,06,10,30,13.60
2021,05,06,10,31,13.60
2021,05,06,10,32,13.60
2021,05,06,10,33,13.60
2021,05,06,10,34,13.70
2021,05,06,10,35,13.70
2021,05,06,10,36,13.60
2021,05,06,10,37,13.60
2021,05,06,10,38,13.60
2021,05,06,10,39,13.60
2021,05,06,10,40,13.50
2021,05,06,10,41,13.50
2021,05,06,10,42,13.50
2021,05,06,10,43,13.40
2021,05,06,10,44,13.40
2021,05,06,10,45,13.30
2021,05,06,10,46,13.30
2021,05,06,10,47,13.20
2021,05,06,10,48,13.20
2021,05,06,10,49,13.20
2021,05,06,10,50,13.20
2021,05,06,10,51,13.20
2021,05,06,10,52,13.20
2021,05,06,10,53,13.20
2021,05,06,10,54,13.20
2021,05,06,10,55,13.20
2021,05,06,10,56,13.20
2021,05,06,10,57,13.30
2021,05,06,10,58,13.30
2021,05,06,10,59,13.30
2021,05,06,11,00,13.20
2021,05,06,11,01,13.20
2021,05,06,11,02,13.20
2021,05,06,11,03,13.20
2021,05,06,11,04,13.20
2021,05,06,11,05,13.20
2021,05,06,11,06,13.30
2021,05,06,11,07,13.30
2021,05,06,11,08,13.20
2021,05,06,11,09,13.20
2021,05,06,11,10,13.20
2021,05,06,11,11,13.20
2021,05,06,11,12,13.20
2021,05,06,11,13,13.20
2021,05,06,11,14,13.30
2021,05,06,11,15,13.30
2021,05,06,11,16,13.30
2021,05,06,11,17,13.30
2021,05,06,11,18,13.30
2021,05,06,11,19,13.30
2021,05,06,11,20,13.30
2021,05,06,11,21,13.30
2021,05,06,11,22,13.30
2021,05,06,11,23,13.30
2021,05,06,11,24,13.30
2021,05,06,11,25,13.30
2021,05,06,11,26,13.30
2021,05,06,11,27,13.30
2021,05,06,11,28,13.30
2021,05,06,11,29,13.20
2021,05,06,11,30,13.20
2021,05,06,11,31,13.20
2021,05,06,11,32,13.10
2021,05,06,11,33,13.10
2021,05,06,11,34,13.10
2021,05,06,11,35,13.00
2021,05,06,11,36,12.90
2021,05,06,11,37,12.90
2021,05,06,11,38,12.90
2021,05,06,11,39,12.90
2021,05,06,11,40,12.90
2021,05,06,11,41,12.90
2021,05,06,11,42,13.00
2021,05,06,11,43,13.00
2021,05,06,11,44,13.00
2021,05,06,11,45,13.10
2021,05,06,11,46,13.10
2021,05,06,11,47,13.10
2021,05,06,11,48,13.20
2021,05,06,11,49,13.30
2021,05,06,11,50,13.30
2021,05,06,11,51,13.40
2021,05,06,11,52,13.50
2021,05,06,11,53,13.60
2021,05,06,11,54,13.70
2021,05,06,11,55,13.80
2021,05,06,11,56,13.90
2021,05,06,11,57,14.00
2021,05,06,11,58,14.00
2021,05,06,11,59,14.10
2021,05,06,12,00,14.20
2021,05,06,12,01,14.20
2021,05,06,12,02,14.30
2021,05,06,12,03,14.30
2021,05,06,12,04,14.30
2021,05,06,12,05,14.40
2021,05,06,12,06,14.40
2021,05,06,12,07,14.40
2021,05,06,12,08,14.40
2021,05,06,12,09,14.50
2021,05,06,12,10,14.50
2021,05,06,12,11,14.60
2021,05,06,12,12,14.70
2021,05,06,12,13,14.70
2021,05,06,12,14,14.70
2021,05,06,12,15,14.80
2021,05,06,12,16,14.80
2021,05,06,12,17,14.80
2021,05,06,12,18,14.80
2021,05,06,12,19,14.80
2021,05,06,12,20,14.70
2021,05,06,12,21,14.70
2021,05,06,12,22,14.70
2021,05,06,12,23,14.80
2021,05,06,12,24,14.80
2021,05,06,12,25,14.90
2021,05,06,12,26,15.00
2021,05,06,12,27,15.10
2021,05,06,12,28,15.20
2021,05,06,12,29,15.40
2021,05,06,12,30,15.50
2021,05,06,12,31,15.60
2021,05,06,12,32,15.70
2021,05,06,12,33,15.80
2021,05,06,12,34,15.90
2021,05,06,12,35,15.90
2021,05,06,12,36,16.00
2021,05,06,12,37,16.10
2021,05,06,12,38,16.20
2021,05,06,12,39,16.30
2021,05,06,12,40,16.40
2021,05,06,12,41,16.50
2021,05,06,12,42,16.50
2021,05,06,12,43,16.60
2021,05,06,12,44,16.50
2021,05,06,12,45,16.40
2021,05,06,12,46,16.30
2021,05,06,12,47,16.30
2021,05,06,12,48,16.30
2021,05,06,12,49,16.30
2021,05,06,12,50,16.20
2021,05,06,12,51,16.20
2021,05,06,12,52,16.10
2021,05,06,12,53,16.10
2021,05,06,12,54,16.10
2021,05,06,12,55,16.20
2021,05,06,12,56,16.20
2021,05,06,12,57,16.10
2021,05,06,12,58,16.10
2021,05,06,12,59,16.10
2021,05,06,13,00,16.10
2021,05,06,13,01,16.10
2021,05,06,13,02,16.10
2021,05,06,13,03,16.10
2021,05,06,13,04,16.00
2021,05,06,13,05,15.90
2021,05,06,13,06,15.80
2021,05,06,13,07,15.70
2021,05,06,13,08,15.70
2021,05,06,13,09,15.80
2021,05,06,13,10,15.80
2021,05,06,13,11,15.80
2021,05,06,13,12,15.80
2021,05,06,13,13,15.90
2021,05,06,13,14,16.00
2021,05,06,13,15,16.10
2021,05,06,13,16,16.30
2021,05,06,13,17,16.50
2021,05,06,13,18,16.60
2021,05,06,13,19,16.70
2021,05,06,13,20,16.90
2021,05,06,13,21,17.00
2021,05,06,13,22,17.00
2021,05,06,13,23,17.10
2021,05,06,13,24,17.10
2021,05,06,13,25,17.20
2021,05,06,13,26,17.20
2021,05,06,13,27,17.10
2021,05,06,13,28,17.10
2021,05,06,13,29,17.10
2021,05,06,13,30,17.10
2021,05,06,13,31,17.10
2021,05,06,13,32,17.20
2021,05,06,13,33,17.30
2021,05,06,13,34,17.30
2021,05,06,13,35,17.10
2021,05,06,13,36,16.90
2021,05,06,13,37,16.70
2021,05,06,13,38,16.60
2021,05,06,13,39,16.60
2021,05,06,13,40,16.50
2021,05,06,13,41,16.50
2021,05,06,13,42,16.40
2021,05,06,13,43,16.30
2021,05,06,13,44,16.20
2021,05,06,13,45,16.10
2021,05,06,13,46,16.00
2021,05,06,13,47,15.90
2021,05,06,13,48,15.90
2021,05,06,13,49,15.80
2021,05,06,13,50,15.70
2021,05,06,13,51,15.70
2021,05,06,13,52,15.70
2021,05,06,13,53,15.60
2021,05,06,13,54,15.60
2021,05,06,13,55,15.60
2021,05,06,13,56,15.70
2021,05,06,13,57,15.80
2021,05,06,13,58,15.90
2021,05,06,13,59,16.10
2021,05,06,14,00,16.30
2021,05,06,14,01,16.60
2021,05,06,14,02,16.80
2021,05,06,14,03,17.00
2021,05,06,14,04,17.20
2021,05,06,14,05,17.40
2021,05,06,14,06,17.50
2021,05,06,14,07,17.60
2021,05,06,14,08,17.60
2021,05,06,14,09,17.60
2021,05,06,14,10,17.60
2021,05,06,14,11,17.60
2021,05,06,14,12,17.50
2021,05,06,14,13,17.50
2021,05,06,14,14,17.40
2021,05,06,14,15,17.40
2021,05,06,14,16,17.30
2021,05,06,14,17,17.30
2021,05,06,14,18,17.30
2021,05,06,14,19,17.30
2021,05,06,14,20,17.30
2021,05,06,14,21,17.30
2021,05,06,14,22,17.30
2021,05,06,14,23,17.30
2021,05,06,14,24,17.30
2021,05,06,14,25,17.20
2021,05,06,14,26,17.20
2021,05,06,14,27,17.20
2021,05,06,14,28,17.20
2021,05,06,14,29,17.20
2021,05,06,14,30,17.20
2021,05,06,14,31,17.20
2021,05,06,14,32,17.20
2021,05,06,14,33,17.20
2021,05,06,14,34,17.20
2021,05,06,14,35,17.20
2021,05,06,14,36,17.10
2021,05,06,14,37,17.10
2021,05,06,14,38,17.10
2021,05,06,14,39,17.10
2021,05,06,14,40,17.10
2021,05,06,14,41,17.10
2021,05,06,14,42,17.10
2021,05,06,14,43,17.10
2021,05,06,14,44,17.10
2021,05,06,14,45,17.00
2021,05,06,14,46,16.80
2021,05,06,14,47,16.60
2021,05,06,14,48,16.40
2021,05,06,14,49,16.20
2021,05,06,14,50,16.10
2021,05,06,14,51,16.00
2021,05,06,14,52,15.90
2021,05,06,14,53,15.70
2021,05,06,14,54,15.60
2021,05,06,14,55,15.60
2021,05,06,14,56,15.50
2021,05,06,14,57,15.50
2021,05,06,14,58,15.40
2021,05,06,14,59,15.40
2021,05,06,15,00,15.40
2021,05,06,15,01,15.40
2021,05,06,15,02,15.40
2021,05,06,15,03,15.50
2021,05,06,15,04,15.50
2021,05,06,15,05,15.50
2021,05,06,15,06,15.60
2021,05,06,15,07,15.60
2021,05,06,15,08,15.60
2021,05,06,15,09,15.60
2021,05,06,15,10,15.60
2021,05,06,15,11,15.60
2021,05,06,15,12,15.60
2021,05,06,15,13,15.60
2021,05,06,15,14,15.60
2021,05,06,15,15,15.60
2021,05,06,15,16,15.60
2021,05,06,15,17,15.60
2021,05,06,15,18,15.60
2021,05,06,15,19,15.60
2021,05,06,15,20,15.60
2021,05,06,15,21,15.70
2021,05,06,15,22,15.70
2021,05,06,15,23,15.80
2021,05,06,15,24,15.80
2021,05,06,15,25,15.80
2021,05,06,15,26,15.80
2021,05,06,15,27,15.80
2021,05,06,15,28,15.80
2021,05,06,15,29,15.80
2021,05,06,15,30,15.80
2021,05,06,15,31,15.80
2021,05,06,15,32,15.80
2021,05,06,15,33,15.80
2021,05,06,15,34,15.90
2021,05,06,15,35,15.90
2021,05,06,15,36,16.00
2021,05,06,15,37,16.00
2021,05,06,15,38,16.00
2021,05,06,15,39,16.10
2021,05,06,15,40,16.10
2021,05,06,15,41,16.10
2021,05,06,15,42,16.10
2021,05,06,15,43,16.10
2021,05,06,15,44,16.10
2021,05,06,15,45,16.10
2021,05,06,15,46,16.10
2021,05,06,15,47,16.00
2021,05,06,15,48,16.00
2021,05,06,15,49,16.00
2021,05,06,15,50,16.00
2021,05,06,15,51,15.90
2021,05,06,15,52,15.90
2021,05,06,15,53,15.90
2021,05,06,15,54,15.90
2021,05,06,15,55,15.90
2021,05,06,15,56,15.90
2021,05,06,15,57,15.90
2021,05,06,15,58,15.90
2021,05,06,15,59,15.90
2021,05,06,16,00,15.90
2021,05,06,16,01,15.80
2021,05,06,16,02,15.80
2021,05,06,16,03,15.80
2021,05,06,16,04,15.80
2021,05,06,16,05,15.80
2021,05,06,16,06,15.80
2021,05,06,16,07,15.70
2021,05,06,16,08,15.70
2021,05,06,16,09,15.70
2021,05,06,16,10,15.70
2021,05,06,16,11,15.70
2021,05,06,16,12,15.70
2021,05,06,16,13,15.70
2021,05,06,16,14,15.70
2021,05,06,16,15,15.80
2021,05,06,16,16,15.80
2021,05,06,16,17,15.80
2021,05,06,16,18,15.90
2021,05,06,16,19,16.00
2021,05,06,16,20,16.10
2021,05,06,16,21,16.10
2021,05,06,16,22,16.20
2021,05,06,16,23,16.20
2021,05,06,16,24,16.20
2021,05,06,16,25,16.30
2021,05,06,16,26,16.30
2021,05,06,16,27,16.30
2021,05,06,16,28,16.40
2021,05,06,16,29,16.40
2021,05,06,16,30,16.40
2021,05,06,16,31,16.40
2021,05,06,16,32,16.40
2021,05,06,16,33,16.30
2021,05,06,16,34,16.30
2021,05,06,16,35,16.30
2021,05,06,16,36,16.30
2021,05,06,16,37,16.30
2021,05,06,16,38,16.30
2021,05,06,16,39,16.30
2021,05,06,16,40,16.30
2021,05,06,16,41,16.30
2021,05,06,16,42,16.30
2021,05,06,16,43,16.30
2021,05,06,16,44,16.20
2021,05,06,16,45,16.20
2021,05,06,16,46,16.20
2021,05,06,16,47,16.20
2021,05,06,16,48,16.20
2021,05,06,16,49,16.20
2021,05,06,16,50,16.20
2021,05,06,16,51,16.10
2021,05,06,16,52,16.10
2021,05,06,16,53,16.00
2021,05,06,16,54,15.90
2021,05,06,16,55,15.90
2021,05,06,16,56,15.90
2021,05,06,16,57,15.80
2021,05,06,16,58,15.80
2021,05,06,16,59,15.70
2021,05,06,17,00,15.70
2021,05,06,17,01,15.70
2021,05,06,17,02,15.70
2021,05,06,17,03,15.70
2021,05,06,17,04,15.60
2021,05,06,17,05,15.60
2021,05,06,17,06,15.50
2021,05,06,17,07,15.40
2021,05,06,17,08,15.20
2021,05,06,17,09,15.10
2021,05,06,17,10,15.00
2021,05,06,17,11,15.00
2021,05,06,17,12,14.90
2021,05,06,17,13,14.90
2021,05,06,17,14,14.90
2021,05,06,17,15,14.90
2021,05,06,17,16,14.80
2021,05,06,17,17,14.80
2021,05,06,17,18,14.80
2021,05,06,17,19,14.70
2021,05,06,17,20,14.70
2021,05,06,17,21,14.60
2021,05,06,17,22,14.60
2021,05,06,17,23,14.50